COSMOS 2251 DEB, 36061

Orbit data source: Space-Track

COSMOS 2251 DEB, 36061 is space debris in LEO originally from a launch on Wed, 16 Jun 1993 UTC launched from the Plesetsk Missile And Space Complex (PKMTR). The debris from Iridium 33, an American commercial communications satellite, has been tracked extensively since its accidental collision with the defunct Russian satellite Cosmos 2251 in 2009. This event, occurring at high speed in low Earth orbit (LEO), generated thousands of pieces of space debris, significantly increasing the risk of further collisions. The Iridium 33 debris cloud has impacted space traffic management and orbital debris mitigation strategies, making it a subject of ongoing study in space situational awareness.

Loading next visibility...
Identifier
36061, 1993-036AXY
Orbit
LEO
Country
Flag of CISCIS
Related business
Manufacturer
Unknown
Mission
Spacecraft
Bus & Motor
Unknown
Mass
Unknown
Launch date (UTC)
1993-06-16 (33 years ago)
Launch vehicle
Unknown
Launch site
Plesetsk Missile And Space Complex (PKMTR)
Object type
Payload
Rocket body
Debris
Shape & HBR
Unknown shape, 0.1 m
Radar Cross Section
Small (<0.1 m²)

Expand to show TLE details & history
Last TLE update: 9 hours ago

TLE from 9 hours ago
0 COSMOS 2251 DEB
1 36061U 93036AXY 26123.65901197  .00000649  00000-0  23983-3 0  9996
2 36061  74.0217  99.9371 0038312 156.5763 203.7145 14.33962667671381
Epoch: 2026-05-03T15:48Z
TLE epoch observation values (Epoch: 2026-05-03T15:48:58.634Z)
Latitude
-0.00001°
Longitude
1.1334°
Altitude
806.248 km
Speed
7.437 km/s
True Right ascension
06h 39m 44s
True Declination
0° 00' 00"
Sunlit
Object was in daylight at epoch
Visualization orbit readout
Latitude
Unknown
Longitude
Unknown
Altitude
Unknown
Speed
Unknown
Apparent Right ascension
Unknown
Apparent Declination
Unknown
Sunlit
N/A
Visualization observer readout
Local Sidereal Time
08:34:08
Azimuth
Unknown
Elevation
Unknown
Doppler factor
Unknown
Orbital elements
Apogee altitude
803.553 km
Perigee altitude
748.734 km
Semi-major axis
7,154.28 km
Eccentricity
0.00383
Inclination
74.0217°
RAAN
99.9371°
Arg. of periapsis
156.5763°
True anomaly
203.53871°
Mean anomaly
203.7145°
Eccentric anomaly
203.62653°
Mean motion
3.58669 °/min
Orbital period
100.37 mins
BSTAR
0.00023983
Loading maneuver chart data...
Computing Atmospheric mass density...
Loading historical data...
Loading historical data...
Loading historical data...
Loading historical data...
Loading historical data...
Loading historical data...
Loading historical data...

Documentation

Showing up to 5 results
|